Track GLOBALSTAR M049 now! 10-day predictions GLOBALSTAR M049 is classified as:
1 25771U 99031B 21025.83344774 -.00000046 00000-0 68361-3 0 9992 2 25771 51.9835 227.6312 0001837 209.7602 150.3090 11.12087329939039